Back to catalog

STARLINK-37787

AliveCommunicationsSSO
NORAD 69692·PAYLOAD·🇺🇸 United States

Launched Jun 25, 2026 from Vandenberg Space Force Base

Loading…

Next Passes (next 24 hours)

TLE

FreshSource: CelesTrak SupGP

Epoch: Sep 14, 2026, 21:17 UTC

1 69692C 26145R   26257.88729167  .00062809  00000+0  19503-2 0  2571
2 69692  97.2848 104.6749 0001695  92.7303 346.8442 15.33397662    15

Track STARLINK-37787 in real time with AllMySat

Download on the App Store